Tracking 18852 objects as of 23-Nov-2017
HD Live streaming from Space Station
objects crossing your sky now

GONETS D1 6

Track GONETS D1 6 now!
10-day predictions
GONETS D1 6 is classified as:


NORAD ID: 24730
Int'l Code: 1997-006F
Perigee: 1,418.8 km
Apogee: 1,421.5 km
Inclination: 82.6 °
Period: 114.1 minutes
Semi major axis: 7791 km
RCS: 0.9337 m2 (medium)
Launch date: February 14, 1997
Source: Commonwealth of Independent States (former USSR) (CIS)
Launch site: PLESETSK MISSILE AND SPACE COMPLEX (PKMTR)
aabbcc
Your satellite tracking list
Your tracking list is empty




NASA's NSSDC Master Catalog

Two Line Element Set (TLE):
1 24730U 97006F   17327.15715805 -.00000006  00000-0 -93601-4 0  9991
2 24730  82.6077  85.7054 0001741 171.6303 188.4815 12.62414482957214
Source of the keplerian elements: AFSPC